Temperature
1 2 1 1 1 1 0 0 0 0 0 -0 -1 -1 -1 -1 -1 -1 -2 -2 -3 -3 -3 -3 -3 -3 -3 -4 -4 -4 -4 -4 -4 -4 -4 -4 -4 -4 -4 -4 -4 -4 -4 -3
0 1 1 1 1 0 1 0 -0 -0 -0 -1 -1 -1 -1 -1 -2 -2 -2 -3 -3 -3 -4 -4 -4 -4 -4 -4 -4 -4 -4 -5 -5 -5 -5 -5 -5 -5 -5 -4 -4 -4 -4 -4
-1 -1 0 -0 -0 -0 -0 -1 -1 -1 -1 -2 -3 -2 -2 -2 -2 -3 -3 -3 -3 -4 -4 -4 -4 -5 -5 -5 -5 -5 -5 -5 -5 -5 -5 -5 -5 -5 -5 -5 -5 -5 -5 -5
-2 -1 -1 0 -1 -1 -1 -1 -2 -2 -2 -2 -2 -2 -2 -2 -3 -3 -4 -4 -4 -4 -4 -5 -5 -5 -5 -5 -5 -5 -6 -6 -6 -6 -6 -6 -6 -6 -6 -6 -6 -6 -5 -5
-3 -3 -2 -1 -1 -2 -2 -2 -3 -3 -3 -3 -3 -3 -3 -3 -3 -4 -4 -4 -5 -5 -5 -5 -5 -6 -6 -6 -6 -6 -6 -6 -6 -7 -7 -7 -7 -6 -6 -6 -6 -6 -6 -6
-3 -3 -2 -0 -2 -1 -2 -3 -3 -3 -4 -4 -4 -5 -4 -4 -4 -4 -4 -5 -5 -5 -5 -6 -6 -6 -6 -6 -7 -7 -7 -7 -7 -7 -7 -7 -7 -7 -7 -7 -7 -7 -6 -6
-4 -3 -3 -2 -2 -2 -2 -2 -3 -3 -3 -4 -5 -5 -4 -5 -5 -5 -5 -5 -6 -6 -6 -6 -7 -7 -7 -7 -7 -7 -7 -7 -8 -8 -8 -8 -8 -8 -8 -8 -7 -7 -7 -7
-4 -4 -3 -3 -3 -3 -3 -3 -3 -3 -3 -4 -4 -4 -5 -5 -5 -6 -6 -6 -6 -7 -7 -7 -7 -8 -8 -8 -8 -8 -8 -8 -8 -8 -8 -8 -8 -8 -8 -8 -8 -8 -8 -7
-4 -3 -3 -3 -3 -3 -3 -3 -3 -3 -4 -4 -5 -5 -6 -6 -6 -6 -7 -7 -7 -7 -8 -8 -8 -8 -8 -8 -8 -8 -8 -8 -8 -8 -8 -9 -9 -9 -9 -9 -9 -8 -8 -8
-5 -5 -4 -3 -3 -3 -3 -3 -4 -4 -4 -5 -5 -6 -6 -6 -7 -7 -7 -7 -8 -8 -8 -8 -8 -9 -9 -9 -9 -9 -9 -9 -9 -9 -9 -9 -9 -9 -9 -9 -9 -9 -9 -9
-5 -5 -5 -4 -4 -4 -4 -4 -4 -5 -5 -6 -6 -6 -7 -7 -7 -7 -8 -8 -8 -9 -9 -9 -9 -9 -9 -9 -9 -9 -9 -9 -9 -9 -9 -9 -9 -9 -9 -9 -9 -9 -9 -9
-4 -4 -5 -4 -4 -4 -5 -5 -5 -6 -6 -6 -6 -7 -7 -7 -8 -8 -8 -8 -9 -9 -9 -9 -9 -9 -9 -9 -9 -9 -9 -9 -9 -9 -9 -9 -9 -9 -9 -9 -9 -9 -9 -10
-4 -4 -4 -4 -5 -5 -5 -6 -6 -6 -6 -7 -7 -7 -7 -8 -8 -8 -9 -9 -9 -9 -9 -10 -10 -10 -10 -10 -10 -10 -10 -10 -10 -10 -10 -10 -10 -10 -10 -9 -9 -9 -9 -9
-4 -5 -6 -6 -6 -6 -6 -7 -7 -7 -7 -7 -8 -8 -8 -8 -8 -9 -9 -9 -10 -10 -10 -10 -10 -10 -10 -10 -10 -10 -10 -10 -10 -10 -10 -10 -10 -10 -10 -10 -10 -10 -10 -10
-5 -5 -6 -6 -7 -7 -7 -7 -7 -8 -8 -8 -8 -8 -9 -9 -9 -9 -9 -10 -10 -10 -10 -10 -10 -10 -10 -10 -11 -11 -11 -11 -11 -11 -11 -11 -11 -11 -11 -11 -11 -11 -10 -10
-6 -6 -7 -7 -7 -8 -8 -8 -8 -8 -8 -8 -9 -9 -9 -9 -9 -10 -10 -10 -10 -10 -11 -11 -11 -11 -11 -11 -11 -11 -11 -11 -11 -11 -11 -11 -11 -11 -11 -11 -11 -11 -11 -11
-7 -7 -7 -8 -8 -8 -8 -8 -8 -9 -9 -9 -9 -9 -10 -10 -10 -10 -10 -11 -11 -11 -11 -11 -11 -11 -11 -11 -11 -11 -11 -11 -11 -11 -11 -11 -11 -11 -12 -12 -12 -12 -11 -11
-7 -7 -7 -8 -8 -9 -9 -9 -9 -9 -9 -10 -10 -10 -10 -10 -10 -11 -11 -11 -11 -11 -11 -11 -11 -11 -11 -12 -12 -12 -12 -12 -12 -12 -12 -12 -12 -12 -12 -12 -12 -12 -12 -11
-7 -8 -8 -8 -9 -9 -9 -9 -9 -10 -10 -10 -10 -10 -11 -11 -11 -11 -11 -11 -11 -11 -12 -12 -12 -12 -12 -12 -12 -12 -12 -12 -12 -12 -12 -12 -12 -12 -12 -12 -12 -12 -12 -12
-8 -8 -9 -9 -9 -9 -10 -10 -10 -10 -10 -11 -11 -11 -11 -11 -11 -12 -12 -12 -12 -12 -12 -12 -12 -12 -12 -12 -12 -12 -12 -12 -12 -12 -12 -12 -12 -12 -12 -12 -12 -12 -12 -12
-9 -9 -9 -9 -10 -10 -10 -10 -10 -11 -11 -11 -11 -11 -12 -12 -12 -12 -12 -12 -12 -12 -12 -12 -12 -12 -12 -12 -13 -13 -13 -13 -13 -13 -13 -13 -13 -13 -13 -13 -13 -13 -13 -13
-9 -9 -10 -10 -10 -10 -11 -11 -11 -11 -11 -11 -12 -12 -12 -12 -12 -12 -12 -13 -13 -13 -13 -13 -13 -13 -13 -13 -13 -13 -13 -13 -13 -13 -13 -13 -13 -13 -13 -13 -13 -13 -13 -13
-10 -10 -10 -11 -11 -11 -11 -11 -12 -12 -12 -12 -12 -12 -12 -13 -13 -13 -13 -13 -13 -13 -13 -13 -13 -13 -13 -13 -13 -13 -13 -13 -13 -13 -13 -13 -13 -13 -13 -13 -13 -13 -13 -13
-10 -11 -11 -11 -11 -11 -12 -12 -12 -12 -12 -12 -13 -13 -13 -13 -13 -13 -13 -13 -13 -13 -13 -13 -13 -14 -14 -13 -13 -14 -14 -14 -14 -14 -14 -14 -14 -14 -13 -13 -13 -13 -13 -13
-11 -11 -11 -12 -12 -12 -12 -12 -12 -13 -13 -13 -13 -13 -13 -13 -13 -13 -13 -13 -13 -14 -14 -14 -14 -14 -14 -14 -14 -14 -14 -14 -14 -14 -14 -14 -14 -14 -14 -14 -14 -14 -13 -13
-11 -12 -12 -12 -12 -12 -12 -13 -13 -13 -13 -13 -13 -13 -13 -14 -14 -14 -14 -14 -14 -14 -14 -14 -14 -14 -14 -14 -14 -14 -14 -14 -14 -14 -14 -14 -14 -14 -14 -14 -14 -14 -14 -13
-12 -12 -12 -12 -12 -13 -13 -13 -13 -13 -13 -14 -14 -14 -14 -14 -14 -14 -14 -14 -14 -14 -14 -14 -14 -14 -15 -14 -14 -14 -14 -14 -14 -14 -14 -14 -14 -14 -14 -14 -14 -14 -14 -13
Wind_Speed
6 5 4 7 8 8 10 10 10 9 8 8 7 6 5 3 3 3 3 3 3 3 4 4 5 5 5 6 6 6 6 7 7 7 7 7 7 7 7 7 7 7 7 6
4 4 5 8 9 9 11 9 10 9 10 5 3 2 2 3 3 3 3 4 4 4 5 5 5 6 6 6 6 6 6 7 7 7 8 8 7 7 7 7 7 7 6 6
4 2 4 8 8 9 6 5 7 10 8 2 2 3 4 4 3 3 4 5 5 5 5 6 6 6 6 6 6 6 7 7 7 7 8 8 8 8 7 7 7 7 7 6
2 1 7 7 2 4 5 5 5 4 3 3 3 3 2 2 3 3 4 5 5 5 5 5 5 5 6 6 6 6 7 7 7 8 8 8 8 8 7 6 6 6 7 7
3 4 8 7 2 3 4 4 3 4 3 1 1 2 2 1 1 3 4 4 4 5 5 4 5 5 5 6 6 7 7 8 8 8 8 8 8 8 7 6 6 6 6 6
4 4 7 5 2 1 2 4 3 3 3 2 1 1 4 3 3 4 4 4 4 4 4 4 5 5 5 6 6 7 8 8 8 8 8 8 8 7 6 6 7 7 7 6
6 6 8 5 1 3 3 5 1 3 3 3 3 4 3 3 4 4 4 4 4 4 4 5 5 5 5 6 7 8 8 8 8 8 8 8 7 6 6 6 6 6 7 6
5 5 8 2 4 5 5 1 1 2 2 2 2 2 2 3 4 4 4 5 4 4 5 5 5 5 6 7 8 7 8 8 8 8 7 7 7 6 6 6 6 5 6 6
8 7 2 2 3 2 2 2 1 2 1 2 2 2 3 3 4 4 5 5 4 5 6 6 5 4 6 8 7 7 8 8 8 8 7 7 6 7 6 5 5 5 5 6
4 5 3 2 2 1 1 1 1 1 1 1 3 3 4 4 4 4 5 5 5 5 6 6 6 6 6 7 7 7 8 8 8 7 7 7 6 6 5 5 5 6 6 6
4 4 2 2 3 2 1 1 0 1 2 2 3 3 3 4 4 4 5 5 4 5 6 7 7 7 7 7 6 7 8 7 7 7 7 6 6 5 6 5 6 7 5 5
6 5 4 4 2 2 1 1 2 2 2 2 2 3 3 4 4 4 5 5 5 5 6 7 7 7 7 7 6 6 7 7 6 6 6 6 6 7 9 9 12 12 10 9
3 2 2 2 1 1 1 1 1 1 1 2 3 2 3 3 4 4 4 5 5 6 6 7 7 7 7 7 7 6 6 7 6 6 6 6 6 6 7 9 10 10 11 11
0 1 0 1 2 1 1 1 1 1 1 2 2 3 3 3 4 4 5 5 5 5 6 6 7 7 7 7 7 7 7 8 7 6 6 6 6 6 6 7 7 7 8 11
1 0 2 1 0 0 0 0 1 2 2 3 3 3 3 4 5 5 5 6 6 6 6 6 7 8 8 7 7 7 6 5 5 5 5 5 5 6 5 6 6 7 6 7
1 1 1 1 1 1 1 1 2 3 3 4 3 4 4 4 4 5 5 5 5 6 7 7 7 8 7 7 7 6 5 9 8 5 5 5 5 5 5 6 6 6 6 6
2 1 1 2 2 3 3 3 3 3 3 4 4 4 4 4 4 5 6 5 5 6 7 7 8 8 7 6 6 5 5 7 9 7 5 5 5 5 5 5 6 6 6 7
3 4 4 4 4 4 4 3 3 3 3 4 4 3 3 4 5 6 6 6 6 6 6 7 7 7 6 6 5 5 5 5 5 5 5 5 5 5 5 6 6 7 6 7
1 2 2 2 3 3 3 3 3 3 3 3 3 3 3 4 5 5 5 6 6 7 7 7 10 7 6 7 7 4 5 5 5 5 5 7 6 5 5 5 6 6 6 6
0 0 1 1 1 1 2 2 2 3 3 2 2 3 4 4 4 5 5 4 4 5 7 8 7 6 6 7 8 4 4 5 5 5 5 5 5 6 6 6 6 6 6 6
0 0 1 1 2 2 2 2 2 3 3 2 2 3 4 5 4 4 4 5 5 6 6 8 6 5 6 6 7 4 4 4 5 5 5 5 5 6 6 6 6 6 6 6
1 0 1 1 1 2 2 2 2 2 2 2 2 3 3 4 4 4 4 4 5 9 6 4 5 8 9 8 3 4 4 5 5 5 5 5 5 5 6 6 6 6 6 6
1 1 1 1 1 2 3 2 2 2 2 3 3 3 3 4 3 3 4 4 5 8 6 4 8 12 11 5 4 4 5 5 5 5 5 5 5 5 5 6 6 6 6 6
0 1 1 1 1 1 2 3 3 2 2 3 3 3 3 3 3 3 3 7 9 9 5 8 12 12 10 5 4 4 5 5 5 5 5 5 5 5 5 6 6 6 6 7
0 1 0 1 1 2 2 2 2 2 2 2 3 3 3 2 3 4 4 5 8 8 5 8 11 11 7 5 5 5 5 5 6 5 5 5 5 5 5 5 5 6 6 6
0 1 1 1 1 1 1 1 2 2 2 3 3 3 3 3 3 3 3 4 6 8 6 5 6 7 5 5 5 5 5 6 7 6 6 6 6 6 6 6 7 6 6 6
1 1 1 1 2 2 1 1 2 2 3 3 3 3 3 3 3 3 4 4 4 5 4 5 4 5 5 5 5 6 5 5 5 6 6 6 5 5 6 7 6 6 6 7
Wind_Direction
251 260 235 239 242 218 212 214 222 243 244 250 233 231 233 232 241 248 257 268 274 286 293 301 307 310 309 309 311 312 311 311 309 307 305 305 307 308 311 310 308 304 302 302
273 268 266 268 253 233 232 231 237 255 263 249 245 228 242 250 253 259 269 273 282 290 298 299 298 302 306 306 308 311 309 308 311 311 311 309 307 307 310 309 306 303 300 299
254 302 331 270 238 216 218 217 207 233 244 214 252 244 243 246 246 250 264 275 281 285 284 286 288 295 296 299 306 311 310 310 312 312 312 309 308 308 305 305 303 301 297 294
216 52 242 245 218 201 211 241 225 230 231 208 228 256 261 223 220 262 275 280 282 286 290 293 295 299 300 305 307 310 312 311 311 311 309 309 307 304 301 300 298 295 295 293
176 232 271 287 254 181 197 263 233 219 242 250 86 16 307 271 274 271 277 279 281 286 291 297 298 300 305 309 312 312 313 311 310 309 309 310 309 308 305 305 301 295 297 296
172 209 243 252 245 207 100 273 247 184 199 190 104 273 272 312 323 311 308 307 303 307 308 305 304 308 307 309 312 311 311 308 307 305 305 304 302 303 304 304 300 302 303 300
200 226 259 255 222 104 163 252 219 170 188 181 202 224 261 303 314 313 313 315 315 316 313 308 312 317 310 309 307 306 308 307 308 307 302 298 299 301 303 302 302 301 301 301
181 211 251 214 139 184 220 200 148 165 183 190 228 263 294 308 312 318 319 319 320 318 312 313 317 319 311 305 305 308 308 307 306 306 305 308 304 301 301 300 299 299 301 304
196 217 259 171 188 205 146 177 203 186 218 193 227 270 292 296 298 304 306 308 312 309 308 312 315 313 303 304 309 311 311 308 305 305 306 308 303 300 301 298 297 301 301 303
239 258 251 228 199 191 161 189 212 202 208 217 242 259 276 286 296 303 303 303 310 312 310 311 313 309 300 304 310 310 308 307 307 305 305 306 304 301 298 296 295 298 299 300
241 263 299 270 227 216 215 177 220 268 250 239 240 262 270 282 292 296 303 308 310 307 305 306 311 310 311 311 311 310 307 306 308 309 305 303 303 297 297 286 287 297 294 294
225 216 206 240 234 204 186 240 250 258 289 290 262 265 277 282 288 294 299 306 310 309 307 308 311 311 312 312 311 308 310 311 308 307 306 308 308 309 305 305 307 305 303 302
212 217 203 215 210 159 196 253 283 270 264 290 300 285 285 289 296 300 304 308 306 304 305 306 309 311 314 314 313 306 302 305 306 308 308 308 309 310 313 318 318 318 318 315
132 107 166 228 231 267 257 273 311 338 319 299 304 311 305 301 306 307 304 304 304 304 305 307 310 311 313 315 314 311 305 305 308 303 302 302 304 303 304 309 316 317 319 321
328 170 200 212 149 359 329 330 338 324 323 325 323 316 311 307 305 306 308 312 314 313 312 314 314 313 317 317 316 313 310 308 304 302 302 302 303 303 302 304 306 311 316 320
289 56 113 135 205 301 319 304 283 288 297 304 308 308 306 303 304 309 316 321 318 314 313 313 311 313 318 318 317 314 310 315 318 312 311 311 309 308 306 306 307 310 312 315
160 212 226 246 260 273 274 268 260 271 284 288 291 299 308 314 316 317 318 317 308 303 308 311 311 316 319 317 313 310 310 313 317 315 310 308 307 306 307 307 306 307 308 312
211 217 219 221 233 255 275 279 274 277 279 283 295 305 310 309 307 309 313 317 318 318 319 318 318 320 323 322 317 312 312 312 312 308 305 305 307 306 306 305 306 306 309 313
197 208 232 245 247 248 260 271 276 279 283 287 291 291 292 294 298 304 311 318 321 320 318 318 327 333 326 323 325 312 311 312 312 313 310 313 314 312 309 308 309 310 312 314
153 239 262 285 292 263 270 280 285 290 289 285 289 297 303 303 304 307 310 306 297 292 299 314 324 325 320 317 321 312 314 314 314 315 315 314 313 311 308 306 307 308 308 309
283 315 335 333 324 313 291 285 282 286 292 285 277 284 292 301 303 302 309 314 315 314 314 325 332 321 316 319 324 328 325 319 316 314 313 311 309 310 311 311 309 307 306 306
253 264 302 317 320 317 310 298 283 288 301 304 298 294 300 306 310 308 293 288 304 323 329 321 320 321 329 335 344 334 325 320 316 314 310 309 308 307 308 309 308 307 305 303
279 273 296 302 295 296 312 318 310 301 295 293 293 295 295 295 299 304 310 311 312 323 331 321 325 331 342 353 342 331 325 321 318 316 313 311 307 304 303 304 304 305 305 305
332 326 320 320 331 344 333 319 316 310 299 294 292 292 295 304 305 291 286 313 326 329 330 329 335 338 348 353 336 329 324 320 316 313 313 313 309 305 302 301 301 301 302 303
335 326 336 353 344 315 303 309 318 317 318 316 313 311 305 290 286 299 306 312 325 334 332 334 338 342 347 334 330 325 320 315 314 316 316 316 313 306 302 300 299 299 300 300
317 306 295 291 293 298 302 308 314 313 317 320 320 316 315 311 305 308 313 316 319 332 334 326 327 332 330 324 322 321 318 319 322 322 316 313 312 311 305 301 298 297 296 296
352 1 0 353 338 323 311 304 305 307 309 305 307 313 319 324 328 328 325 325 325 325 322 322 322 321 321 321 320 318 317 317 315 314 313 310 309 308 308 307 303 298 295 294
Height
1529 1528 1529 1528 1527 1528 1530 1530 1531 1524 1522 1518 1518 1518 1518 1518 1518 1517 1516 1516 1514 1513 1511 1509 1507 1505 1502 1499 1497 1494 1491 1488 1485 1483 1480 1477 1474 1471 1469 1466 1464 1461 1459 1458
1531 1527 1527 1526 1522 1523 1523 1522 1523 1520 1518 1515 1515 1516 1516 1515 1515 1515 1514 1513 1511 1510 1508 1505 1503 1501 1498 1495 1493 1490 1487 1484 1481 1478 1475 1472 1469 1467 1464 1461 1459 1457 1455 1453
1534 1531 1527 1526 1517 1517 1517 1516 1516 1516 1514 1513 1514 1513 1513 1513 1513 1512 1511 1510 1509 1507 1504 1502 1500 1497 1494 1491 1489 1486 1483 1480 1477 1473 1470 1467 1465 1462 1459 1457 1454 1452 1450 1448
1536 1534 1534 1515 1512 1511 1512 1511 1511 1511 1511 1511 1511 1511 1511 1511 1510 1509 1509 1507 1505 1503 1501 1499 1496 1493 1491 1488 1485 1482 1479 1475 1472 1469 1466 1463 1460 1457 1455 1452 1450 1448 1446 1444
1537 1537 1525 1515 1510 1510 1512 1511 1509 1509 1509 1510 1510 1509 1509 1509 1508 1507 1506 1504 1502 1500 1497 1495 1492 1490 1487 1484 1481 1478 1474 1471 1468 1465 1461 1458 1456 1453 1450 1448 1445 1443 1442 1440
1535 1533 1525 1510 1508 1507 1510 1512 1507 1506 1507 1508 1508 1511 1508 1506 1505 1504 1502 1501 1498 1496 1494 1491 1489 1486 1483 1480 1477 1473 1470 1467 1464 1461 1458 1454 1452 1449 1447 1444 1442 1439 1437 1436
1530 1529 1517 1508 1507 1508 1515 1509 1505 1504 1505 1506 1506 1507 1506 1504 1503 1501 1499 1497 1495 1493 1490 1487 1485 1482 1479 1476 1473 1470 1467 1463 1460 1457 1454 1451 1448 1445 1443 1440 1438 1436 1434 1432
1526 1527 1517 1505 1506 1508 1506 1503 1502 1503 1503 1504 1503 1503 1502 1501 1500 1498 1496 1494 1491 1489 1486 1484 1481 1478 1474 1472 1469 1466 1463 1459 1456 1453 1450 1447 1444 1442 1439 1437 1434 1432 1430 1428
1513 1509 1504 1502 1502 1502 1502 1502 1501 1501 1501 1501 1501 1500 1499 1498 1496 1495 1493 1491 1488 1485 1483 1480 1477 1474 1471 1468 1465 1462 1459 1455 1452 1449 1446 1444 1441 1438 1435 1433 1431 1428 1426 1424
1508 1503 1501 1501 1500 1501 1501 1500 1500 1500 1500 1499 1498 1497 1496 1495 1493 1491 1489 1487 1485 1482 1479 1476 1473 1470 1467 1464 1461 1458 1455 1452 1449 1446 1443 1440 1437 1435 1432 1430 1427 1425 1423 1421
1504 1501 1500 1499 1499 1499 1498 1498 1498 1498 1497 1497 1496 1494 1493 1492 1490 1488 1486 1484 1481 1478 1475 1472 1470 1467 1464 1461 1458 1455 1452 1449 1446 1442 1439 1436 1434 1432 1429 1427 1425 1423 1420 1418
1499 1497 1497 1496 1496 1496 1496 1495 1495 1495 1494 1494 1493 1491 1490 1488 1486 1485 1482 1480 1477 1475 1472 1469 1466 1463 1460 1457 1454 1451 1448 1445 1442 1439 1436 1433 1430 1428 1425 1424 1422 1420 1417 1416
1493 1493 1493 1493 1494 1494 1493 1493 1493 1492 1491 1490 1489 1488 1487 1485 1483 1481 1479 1476 1474 1471 1468 1465 1462 1459 1457 1454 1451 1448 1445 1442 1439 1436 1433 1430 1427 1424 1421 1419 1418 1416 1414 1412
1491 1491 1491 1491 1491 1491 1491 1491 1490 1490 1489 1488 1486 1485 1483 1481 1479 1477 1475 1473 1470 1467 1465 1462 1459 1456 1453 1450 1447 1444 1442 1439 1436 1433 1430 1428 1425 1422 1419 1416 1414 1411 1410 1408
1490 1489 1489 1488 1488 1488 1488 1488 1487 1486 1486 1484 1483 1481 1480 1478 1476 1474 1472 1469 1467 1464 1461 1458 1455 1453 1450 1447 1444 1441 1438 1436 1433 1430 1428 1425 1423 1420 1417 1415 1412 1409 1407 1405
1487 1487 1487 1486 1486 1486 1485 1485 1484 1483 1482 1481 1479 1478 1476 1474 1472 1470 1468 1466 1463 1460 1458 1455 1452 1450 1447 1444 1441 1438 1435 1433 1430 1428 1425 1422 1420 1417 1415 1412 1410 1407 1405 1403
1485 1484 1484 1484 1483 1483 1483 1482 1481 1480 1479 1477 1476 1474 1473 1471 1469 1467 1465 1462 1460 1457 1455 1452 1449 1447 1444 1441 1438 1435 1433 1430 1428 1425 1422 1420 1417 1415 1412 1410 1408 1405 1403 1401
1482 1482 1481 1481 1480 1480 1479 1479 1478 1477 1476 1474 1473 1471 1469 1467 1465 1463 1461 1459 1457 1454 1452 1449 1446 1444 1441 1438 1435 1433 1430 1427 1425 1422 1420 1417 1415 1413 1410 1408 1405 1403 1401 1399
1480 1479 1479 1479 1478 1477 1476 1475 1475 1474 1472 1471 1470 1468 1466 1465 1463 1461 1458 1456 1453 1451 1448 1446 1444 1441 1438 1436 1433 1430 1428 1425 1422 1420 1418 1415 1413 1410 1408 1405 1403 1401 1399 1397
1477 1477 1476 1476 1475 1475 1474 1473 1472 1471 1469 1468 1467 1465 1463 1462 1460 1458 1455 1453 1451 1448 1446 1444 1441 1439 1436 1433 1431 1428 1425 1423 1420 1417 1415 1412 1410 1408 1405 1403 1401 1399 1396 1394
1475 1475 1474 1473 1473 1472 1471 1470 1469 1468 1467 1465 1464 1462 1461 1459 1457 1455 1453 1451 1449 1446 1444 1441 1439 1436 1434 1431 1429 1426 1423 1420 1418 1415 1412 1410 1407 1405 1403 1401 1398 1396 1394 1392
1473 1472 1472 1471 1470 1470 1469 1468 1467 1465 1464 1463 1462 1460 1458 1457 1455 1453 1451 1449 1447 1444 1442 1439 1437 1434 1432 1429 1426 1423 1421 1418 1415 1413 1410 1407 1405 1402 1400 1398 1396 1393 1391 1389
1471 1471 1470 1469 1468 1467 1467 1466 1464 1463 1462 1461 1459 1458 1456 1455 1453 1451 1449 1447 1444 1442 1440 1437 1434 1432 1429 1426 1424 1421 1418 1415 1413 1410 1407 1405 1402 1400 1397 1395 1393 1391 1388 1386
1470 1469 1469 1468 1467 1466 1464 1463 1462 1461 1460 1459 1457 1456 1454 1452 1451 1449 1447 1445 1442 1440 1437 1435 1432 1430 1427 1424 1421 1419 1416 1413 1411 1408 1405 1402 1400 1397 1395 1393 1390 1388 1386 1383
1468 1468 1467 1466 1465 1464 1463 1462 1460 1459 1458 1457 1455 1454 1452 1450 1449 1447 1445 1442 1440 1438 1435 1432 1430 1427 1424 1422 1419 1417 1414 1411 1408 1405 1403 1400 1397 1395 1392 1390 1388 1385 1383 1381
1467 1466 1466 1465 1464 1462 1461 1460 1459 1457 1456 1455 1453 1452 1450 1448 1446 1444 1442 1440 1438 1435 1433 1430 1427 1425 1422 1420 1417 1414 1411 1409 1406 1403 1400 1397 1395 1392 1390 1387 1385 1383 1381 1378
1466 1465 1464 1463 1462 1461 1460 1459 1457 1456 1454 1453 1451 1450 1448 1446 1444 1442 1440 1438 1435 1433 1430 1428 1425 1423 1420 1417 1415 1412 1409 1406 1403 1400 1398 1395 1392 1390 1387 1385 1383 1380 1378 1376